Time,TemperatureF,DewpointF,PressureIn,WindDirection,WindDirectionDegrees,WindSpeedMPH,WindSpeedGustMPH,Humidity,HourlyPrecipIn,Conditions,Clouds,dailyrainin,SoftwareType,DateUTC
2013-01-03 06:00:00,17.0,9.0,-100.00,North,-999,-999.0,-999.0,71,0.00,,,-99.99,,2013-01-03 14:00:00,
2013-01-03 08:00:00,16.0,7.0,-100.00,North,-999,-999.0,-999.0,68,0.00,,,-99.99,,2013-01-03 16:00:00,
2013-01-03 09:00:00,18.0,8.0,-100.00,North,-999,-999.0,-999.0,63,0.00,,,-99.99,,2013-01-03 17:00:00,
2013-01-03 10:00:00,19.0,8.0,-100.00,North,-999,-999.0,-999.0,61,0.00,,,-99.99,,2013-01-03 18:00:00,
2013-01-03 11:00:00,20.0,8.0,-100.00,North,-999,-999.0,-999.0,58,0.00,,,-99.99,,2013-01-03 19:00:00,
2013-01-03 12:00:00,23.0,9.0,-100.00,North,-999,-999.0,-999.0,54,0.00,,,-99.99,,2013-01-03 20:00:00,
2013-01-03 13:00:00,23.0,10.0,-100.00,North,-999,-999.0,-999.0,57,0.00,,,-99.99,,2013-01-03 21:00:00,
2013-01-03 14:00:00,24.0,13.0,-100.00,North,-999,-999.0,-999.0,63,0.00,,,-99.99,,2013-01-03 22:00:00,
2013-01-03 15:00:00,35.0,23.0,-100.00,North,-999,-999.0,-999.0,60,0.00,,,-99.99,,2013-01-03 23:00:00,
2013-01-03 16:00:00,34.0,20.0,-100.00,North,-999,-999.0,-999.0,56,0.00,,,-99.99,,2013-01-04 00:00:00,
2013-01-03 17:00:00,33.0,21.0,-100.00,North,-999,-999.0,-999.0,62,0.00,,,-99.99,,2013-01-04 01:00:00,
2013-01-03 18:00:00,32.0,22.0,-100.00,North,-999,-999.0,-999.0,67,0.00,,,-99.99,,2013-01-04 02:00:00,
2013-01-03 18:53:00,32.0,22.0,-100.00,North,-999,-999.0,-999.0,67,0.00,,,-99.99,,2013-01-04 02:53:00,
2013-01-03 19:00:00,30.0,26.0,-100.00,North,-999,-999.0,-999.0,85,0.00,,,-99.99,,2013-01-04 03:00:00,
2013-01-03 20:00:00,29.0,27.0,-100.00,North,-999,-999.0,-999.0,94,0.00,,,-99.99,,2013-01-04 04:00:00,
2013-01-03 20:52:00,29.0,27.0,-100.00,North,-999,-999.0,-999.0,94,0.00,,,-99.99,,2013-01-04 04:52:00,
2013-01-03 21:00:00,30.0,29.0,-100.00,North,-999,-999.0,-999.0,96,0.00,,,-99.99,,2013-01-04 05:00:00,
2013-01-03 22:00:00,31.0,30.0,-100.00,North,-999,-999.0,-999.0,97,0.00,,,-99.99,,2013-01-04 06:00:00,
2013-01-03 23:00:00,32.0,31.0,-100.00,North,-999,-999.0,-999.0,97,0.01,,,-99.99,,2013-01-04 07:00:00,
2013-01-03 23:52:00,32.0,31.0,-100.00,North,-999,-999.0,-999.0,97,0.01,,,-99.99,,2013-01-04 07:52:00,